| time (UTC) | temp F | wind direction | speed knots | gust knots | rain 1hr in | rain 24hr in | rain mn in | humidity % | barometer mb |
| 20260504003017 | 57 | 68 | 4.3 | 6.1 | 0.00 | 0.00 | 0.00 | 87 | 1020.4 |
| 20260504002016 | 57 | 68 | 3.5 | 4.3 | 0.00 | 0.00 | 0.00 | 86 | 1020.4 |
| 20260504001017 | 57 | 68 | 3.5 | 3.5 | 0.00 | 0.00 | 0.00 | 86 | 1020.5 |
| 20260504000018 | 57 | 68 | 3.5 | 4.3 | 0.00 | 0.00 | 0.00 | 86 | 1020.5 |
| 20260503235019 | 57 | 68 | 2.6 | 3.5 | 0.00 | 0.00 | 0.00 | 86 | 1020.5 |
| 20260503234019 | 58 | 68 | 2.6 | 4.3 | 0.00 | 0.00 | 0.00 | 86 | 1020.6 |
| 20260503233017 | 58 | 45 | 3.5 | 4.3 | 0.00 | 0.00 | 0.00 | 86 | 1020.6 |
| 20260503232229 | 57 | 68 | 2.6 | 3.5 | 0.00 | 0.00 | 0.00 | 86 | 1020.6 |
| 20260503231230 | 58 | 68 | 3.5 | 4.3 | 0.00 | 0.00 | 0.00 | 85 | 1020.7 |
| 20260503230017 | 59 | 68 | 3.5 | 4.3 | 0.00 | 0.00 | 0.00 | 84 | 1020.7 |
| 20260503225017 | 60 | 45 | 2.6 | 3.5 | 0.00 | 0.00 | 0.00 | 83 | 1020.8 |
| 20260503224017 | 60 | 45 | 3.5 | 4.3 | 0.00 | 0.00 | 0.00 | 83 | 1020.9 |
| 20260503223017 | 59 | 45 | 2.6 | 3.5 | 0.00 | 0.00 | 0.00 | 83 | 1021.0 |
| 20260503222018 | 60 | 23 | 2.6 | 3.5 | 0.00 | 0.00 | 0.00 | 82 | 1021.0 |
| 20260503221018 | 60 | 23 | 2.6 | 4.3 | 0.00 | 0.00 | 0.00 | 83 | 1021.0 |
| 20260503220017 | 60 | 0 | 2.6 | 3.5 | 0.00 | 0.00 | 0.00 | 83 | 1021.1 |
| 20260503215441 | 60 | 0 | 2.6 | 3.5 | 0.00 | 0.00 | 0.00 | 83 | 1021.0 |
| 20260503214017 | 60 | 0 | 1.7 | 2.6 | 0.00 | 0.00 | 0.00 | 83 | 1021.0 |
| 20260503213017 | 60 | 0 | 2.6 | 3.5 | 0.00 | 0.00 | 0.00 | 83 | 1021.0 |
| 20260503212017 | 60 | 0 | 2.6 | 3.5 | 0.00 | 0.00 | 0.00 | 83 | 1021.0 |
| 20260503211017 | 60 | 0 | 1.7 | 2.6 | 0.00 | 0.00 | 0.00 | 83 | 1020.9 |
| 20260503210232 | 60 | 0 | 1.7 | 2.6 | 0.00 | 0.00 | 0.00 | 82 | 1021.0 |
| 20260503205017 | 60 | 23 | 1.7 | 3.5 | 0.00 | 0.00 | 0.00 | 82 | 1020.9 |
| 20260503204017 | 60 | 0 | 3.5 | 4.3 | 0.00 | 0.00 | 0.00 | 82 | 1020.9 |
| 20260503203231 | 61 | 338 | 3.5 | 4.3 | 0.00 | 0.00 | 0.00 | 81 | 1021.0 |
| 20260503202017 | 61 | 338 | 2.6 | 3.5 | 0.00 | 0.00 | 0.00 | 81 | 1020.9 |
| 20260503201232 | 61 | 338 | 2.6 | 3.5 | 0.00 | 0.00 | 0.00 | 80 | 1020.8 |
| 20260503200017 | 62 | 293 | 3.5 | 6.1 | 0.00 | 0.00 | 0.00 | 79 | 1020.9 |
| 20260503195017 | 62 | 270 | 4.3 | 7.0 | 0.00 | 0.00 | 0.00 | 79 | 1020.8 |
| 20260503194018 | 62 | 293 | 5.2 | 7.0 | 0.00 | 0.00 | 0.00 | 79 | 1020.8 |
| 20260503193017 | 62 | 293 | 3.5 | 7.0 | 0.00 | 0.00 | 0.00 | 79 | 1020.7 |
| 20260503192227 | 63 | 270 | 4.3 | 7.8 | 0.00 | 0.00 | 0.00 | 80 | 1020.6 |
| 20260503191017 | 63 | 270 | 5.2 | 7.8 | 0.00 | 0.00 | 0.00 | 79 | 1020.5 |
| 20260503190018 | 63 | 270 | 5.2 | 7.8 | 0.00 | 0.00 | 0.00 | 80 | 1020.5 |
| 20260503185016 | 63 | 270 | 6.1 | 7.8 | 0.00 | 0.00 | 0.00 | 80 | 1020.4 |
| 20260503184016 | 63 | 270 | 5.2 | 7.8 | 0.00 | 0.00 | 0.00 | 80 | 1020.3 |
| 20260503183016 | 63 | 293 | 4.3 | 7.0 | 0.00 | 0.00 | 0.00 | 79 | 1020.3 |
| 20260503182229 | 63 | 270 | 3.5 | 6.1 | 0.00 | 0.00 | 0.00 | 79 | 1020.1 |
| 20260503181228 | 63 | 270 | 3.5 | 6.1 | 0.00 | 0.00 | 0.00 | 79 | 1020.2 |
| 20260503180230 | 63 | 270 | 5.2 | 8.7 | 0.00 | 0.00 | 0.00 | 78 | 1020.1 |
| 20260503175016 | 63 | 293 | 5.2 | 7.8 | 0.00 | 0.00 | 0.00 | 78 | 1020.1 |
| 20260503174226 | 63 | 270 | 6.1 | 9.6 | 0.00 | 0.00 | 0.00 | 79 | 1020.2 |
| 20260503173018 | 63 | 270 | 7.0 | 9.6 | 0.00 | 0.00 | 0.00 | 78 | 1020.2 |
| 20260503172016 | 64 | 270 | 7.0 | 8.7 | 0.00 | 0.00 | 0.00 | 78 | 1020.1 |
| 20260503171016 | 64 | 270 | 6.1 | 9.6 | 0.00 | 0.00 | 0.00 | 78 | 1020.2 |
| 20260503170230 | 64 | 270 | 7.0 | 9.6 | 0.00 | 0.00 | 0.00 | 77 | 1020.2 |
| 20260503131018 | 65 | 270 | 9.6 | 12.2 | 0.00 | 0.00 | 0.00 | 73 | 1022.2 |
| 20260503081229 | 63 | 203 | 4.3 | 6.1 | 0.00 | 0.00 | 0.00 | 81 | 1022.8 |
| 20260503072017 | 63 | 225 | 2.6 | 4.3 | 0.00 | 0.00 | 0.00 | 81 | 1022.8 |
| 20260503071443 | 62 | 270 | 1.7 | 5.2 | 0.00 | 0.00 | 0.00 | 81 | 1022.8 |
| 20260503070227 | 62 | 225 | 3.5 | 4.3 | 0.00 | 0.00 | 0.00 | 79 | 1022.8 |
| 20260503055016 | 61 | 0.0 | 2.6 | 0.00 | 0.00 | 0.00 | 81 | 1022.8 | |
| 20260503054017 | 61 | 0.0 | 0.0 | 0.00 | 0.00 | 0.00 | 81 | 1022.8 | |
| 20260503053016 | 61 | 0.0 | 1.7 | 0.00 | 0.00 | 0.00 | 82 | 1022.6 | |
| 20260503052016 | 60 | 23 | 0.9 | 1.7 | 0.00 | 0.00 | 0.00 | 82 | 1022.5 |
| 20260503051016 | 60 | 23 | 2.6 | 3.5 | 0.00 | 0.00 | 0.00 | 83 | 1022.4 |
| 20260503050016 | 59 | 23 | 2.6 | 3.5 | 0.00 | 0.00 | 0.00 | 83 | 1022.4 |
| 20260503045016 | 59 | 23 | 2.6 | 3.5 | 0.00 | 0.00 | 0.00 | 83 | 1022.3 |
| 20260503044230 | 59 | 23 | 3.5 | 3.5 | 0.00 | 0.00 | 0.00 | 84 | 1022.2 |
| 20260503043016 | 59 | 23 | 2.6 | 3.5 | 0.00 | 0.00 | 0.00 | 84 | 1022.2 |
| 20260503042021 | 59 | 23 | 1.7 | 2.6 | 0.00 | 0.00 | 0.00 | 84 | 1022.3 |
| 20260503041016 | 59 | 23 | 1.7 | 2.6 | 0.00 | 0.00 | 0.00 | 84 | 1022.1 |
| 20260503040016 | 59 | 23 | 2.6 | 3.5 | 0.00 | 0.00 | 0.00 | 84 | 1022.1 |
| 20260503035016 | 59 | 23 | 2.6 | 3.5 | 0.00 | 0.00 | 0.00 | 84 | 1022.1 |
| 20260503034016 | 59 | 23 | 0.9 | 3.5 | 0.00 | 0.00 | 0.00 | 84 | 1022.0 |
| 20260503033019 | 59 | 0 | 1.7 | 3.5 | 0.00 | 0.00 | 0.00 | 84 | 1022.0 |
| 20260503032016 | 59 | 0 | 1.7 | 2.6 | 0.00 | 0.00 | 0.00 | 83 | 1022.0 |
| 20260503031016 | 59 | 0 | 2.6 | 3.5 | 0.00 | 0.00 | 0.00 | 84 | 1021.9 |
| 20260503030016 | 59 | 0 | 3.5 | 4.3 | 0.00 | 0.00 | 0.00 | 83 | 1022.0 |
| 20260503025017 | 59 | 0 | 2.6 | 3.5 | 0.00 | 0.00 | 0.00 | 83 | 1022.3 |
| 20260503024015 | 59 | 0 | 2.6 | 3.5 | 0.00 | 0.00 | 0.00 | 83 | 1022.3 |
| 20260503023016 | 59 | 0 | 2.6 | 3.5 | 0.00 | 0.00 | 0.00 | 83 | 1022.3 |
| 20260503022016 | 59 | 0 | 2.6 | 4.3 | 0.00 | 0.00 | 0.00 | 82 | 1022.2 |
| 20260503021019 | 59 | 0 | 2.6 | 3.5 | 0.00 | 0.00 | 0.00 | 82 | 1022.4 |
| 20260503020021 | 59 | 0 | 0.9 | 1.7 | 0.00 | 0.00 | 0.00 | 81 | 1022.5 |
| 20260503015231 | 59 | 0 | 1.7 | 1.7 | 0.00 | 0.00 | 0.00 | 81 | 1022.4 |
| 20260503014019 | 59 | 0 | 1.7 | 2.6 | 0.00 | 0.00 | 0.00 | 81 | 1022.4 |
| 20260503013018 | 59 | 0 | 3.5 | 3.5 | 0.00 | 0.00 | 0.00 | 81 | 1022.3 |
| 20260503012018 | 59 | 0 | 2.6 | 2.6 | 0.00 | 0.00 | 0.00 | 81 | 1022.5 |
| 20260503011018 | 59 | 0 | 2.6 | 3.5 | 0.00 | 0.00 | 0.00 | 81 | 1022.4 |
| 20260503010017 | 59 | 0 | 2.6 | 3.5 | 0.00 | 0.00 | 0.00 | 80 | 1022.5 |
| 20260503005019 | 60 | 0 | 2.6 | 3.5 | 0.00 | 0.00 | 0.00 | 81 | 1022.7 |
| 20260503004232 | 59 | 0 | 1.7 | 2.6 | 0.00 | 0.00 | 0.00 | 81 | 1022.8 |